Tracking 30994 objects as of 8-Jul-2025
HD Live streaming from Space Station
objects crossing your sky now

DELTA 1 DEB

Track DELTA 1 DEB now!
10-day predictions


NORAD ID: 7030
Int'l Code: 1973-086W
Perigee: 1,509.6 km
Apogee: 1,654.4 km
Inclination: 101.9 °
Period: 117.6 minutes
Semi major axis: 7953 km
RCS: 0.058 m2 (small)
Launch date: November 6, 1973
Source: United States (US)
Launch site: AIR FORCE WESTERN TEST RANGE (AFWTR)

Note: This is SATELLITE DEBRIS
Your satellite tracking list
Your tracking list is empty




NASA's NSSDC Master Catalog

Two Line Element Set (TLE):
1 07030U 73086W   25187.26467691  .00000005  00000-0  42541-3 0  9992
2 07030 101.9144 191.8183 0091030  88.1757 341.7497 12.24069758307326
Source of the keplerian elements: AFSPC